{"data":{"norad_id":62574,"intl_designator":"2025-006W","name":"STARLINK-32766","alt_names":[],"object_type":"PAYLOAD","status":"ACTIVE","operator":null,"country":"US","launch_date":"2025-01-10","launch_site_code":"AFETR","launch_vehicle":null,"mission":null,"orbit_class":"UNKNOWN","rcs_meters":null,"size_class":null,"mass_kg":null,"dimensions":null,"purposes":["comms"],"wikipedia_slug":null,"has_3d_model":false,"image_url":null,"decayed_at":null,"tle_current":{"epoch":"2026-09-21T06:22:42.890016Z","epoch_age_seconds":105173,"freshness":"FRESH","line1":"1 62574U 25006W   26264.26577419  .00008293  00000+0  31046-3 0  9996","line2":"2 62574  43.0028 268.0467 0001706 283.2001  76.8661 15.27589738 94772","mean_motion":15.27589738,"eccentricity":0.0001706,"inclination_deg":43.0028,"raan_deg":268.0467,"arg_perigee_deg":283.2001,"mean_anomaly_deg":76.8661,"bstar":0.00031046,"rev_number":9477,"period_min":94.266147786861,"perigee_km":481.84942374586,"apogee_km":484.1904504928,"semimajor_km":6861.1569371193,"source":"CELESTRAK","updated_at":"2026-09-22T09:00:49.630228Z"}}}